Theta_e
346 349 351 353 354 355 355 355 356 356 357 357 356 356 355 354 353 353 352 353 353 353 353 352 353 352 352 352 352 352 352 351
346 346 350 352 353 352 354 354 355 355 356 356 356 355 354 353 353 353 353 353 353 353 353 353 353 353 353 353 352 353 352 351
347 347 350 351 351 352 353 353 354 355 355 355 354 354 353 353 353 353 353 354 354 354 354 354 354 355 355 355 355 356 354 352
348 346 347 351 351 353 352 353 353 352 352 352 353 353 353 353 353 353 351 352 353 354 355 356 357 358 358 357 357 358 357 356
345 345 346 348 350 351 351 353 353 352 352 352 352 353 354 353 350 349 350 352 351 352 354 356 357 358 357 359 358 357 356 358
341 344 346 347 348 350 349 351 352 351 352 351 352 351 350 353 352 350 351 348 350 350 350 350 348 347 350 353 350 349 351 354
335 340 344 346 347 347 347 350 352 350 350 353 352 354 350 351 351 347 351 348 348 347 348 348 347 350 352 350 350 351 350 351
333 336 340 344 348 344 343 346 346 347 349 350 351 350 350 346 350 351 353 354 356 348 353 352 352 351 350 350 349 349 349 348
334 334 337 340 344 344 345 346 351 346 346 346 348 352 353 349 355 354 351 351 351 349 349 349 346 349 348 348 348 348 347 347
334 336 338 343 348 349 351 350 349 347 345 345 348 348 354 355 355 352 352 349 348 347 346 345 345 346 347 347 346 346 345 346
335 336 339 344 349 349 347 345 344 344 343 343 342 341 343 347 348 348 348 344 344 342 341 341 341 342 343 345 344 345 346 347
334 334 336 340 342 343 342 340 340 339 338 338 336 336 337 338 340 342 341 339 336 337 336 337 338 339 339 341 340 340 342 344
331 332 332 335 338 338 337 336 336 335 334 333 332 331 330 330 332 335 335 331 330 331 330 329 330 331 333 333 331 332 333 338
330 331 332 334 334 333 333 333 333 332 330 329 329 328 326 325 325 328 326 325 326 325 323 322 323 323 321 320 318 321 328 334
329 330 332 332 332 332 331 331 329 327 325 325 323 322 323 321 321 323 322 321 320 318 317 317 321 320 318 316 317 322 334 335
326 329 331 330 332 330 328 328 327 323 320 317 316 316 317 316 315 318 317 317 317 315 316 317 318 317 314 316 319 326 333 335
324 326 329 330 330 329 328 330 327 320 315 313 312 313 315 315 316 315 316 314 315 313 314 314 315 313 313 314 312 318 318 323
320 323 325 327 328 328 327 324 320 318 315 310 311 311 311 313 313 315 313 313 312 311 309 311 312 313 309 311 314 311 311 308
319 320 323 324 325 325 325 323 323 321 316 313 312 311 311 312 311 311 310 310 312 310 310 309 310 310 311 307 309 311 313 311
Wind_Speed
12 13 14 10 9 10 10 10 9 8 7 6 5 5 6 6 6 6 6 6 7 7 7 7 8 9 9 9 8 8 8 7
10 9 14 10 10 9 10 8 8 6 5 4 4 4 4 5 6 6 7 7 7 7 7 8 8 8 9 9 9 8 7 7
13 8 13 8 9 9 8 7 6 5 4 4 3 4 4 5 6 7 6 7 7 7 7 7 7 8 8 9 9 8 8 8
13 7 8 10 8 7 7 7 6 4 3 3 3 4 5 6 5 5 6 6 9 9 7 8 7 7 8 8 8 9 9 7
9 7 8 6 7 9 9 7 7 5 3 1 2 3 5 7 3 3 6 10 7 6 5 5 6 6 6 7 7 7 7 11
7 8 7 7 7 7 4 8 8 6 5 4 7 4 8 4 2 4 10 3 6 7 7 6 4 4 6 7 4 6 9 3
11 11 11 11 10 10 8 8 8 6 6 3 3 2 6 1 3 7 1 5 4 3 6 5 3 8 11 4 2 11 2 4
9 7 8 7 6 8 7 5 4 4 4 4 3 4 2 4 3 4 3 4 1 3 2 3 4 3 6 6 5 5 6 7
10 7 8 7 7 6 4 6 3 4 4 3 3 3 2 5 2 3 3 3 3 4 5 4 5 5 6 6 7 7 7 7
9 8 7 7 6 7 6 4 3 3 3 4 3 4 3 3 2 3 3 4 4 5 5 6 6 6 7 6 6 7 8 8
7 6 6 6 5 6 5 5 4 4 5 4 4 5 5 2 2 2 2 3 4 5 6 6 6 7 7 6 7 7 8 7
6 5 6 6 6 6 8 7 5 4 5 5 6 7 7 6 4 3 3 3 5 5 7 6 6 6 6 6 7 7 8 7
6 7 4 4 8 7 7 5 6 5 5 5 5 6 7 7 7 4 3 5 6 5 6 7 7 7 7 7 7 7 6 6
6 7 7 6 8 8 7 6 7 7 5 5 5 5 7 7 7 5 5 5 6 5 5 6 6 6 6 7 8 5 4 3
7 6 7 6 7 7 6 5 6 5 5 5 5 6 7 6 7 4 5 6 5 5 5 7 5 6 6 7 7 4 4 4
8 8 8 8 7 6 6 6 5 4 5 5 6 7 7 7 6 5 5 5 5 7 7 8 4 5 6 9 4 0 5 4
9 9 9 10 9 6 5 2 3 5 5 6 5 7 6 9 8 7 6 7 7 6 8 9 9 4 5 9 6 5 1 6
10 9 8 9 9 7 6 6 7 7 7 6 5 5 7 9 9 9 7 6 8 6 7 8 7 9 5 6 12 6 3 5
11 9 9 8 8 7 8 6 7 4 5 6 4 6 6 8 8 7 7 6 11 7 7 6 7 7 7 7 5 7 8 6
Wind_Direction
136 137 125 132 141 135 129 130 132 127 119 112 104 99 92 82 74 62 57 50 37 28 23 13 6 359 353 354 347 343 340 335
135 112 142 147 148 146 131 129 131 130 116 104 90 70 59 54 38 35 28 21 20 9 5 360 349 343 336 333 325 321 321 316
128 172 122 143 149 148 144 138 130 125 119 98 71 48 18 21 20 16 10 1 0 356 345 336 328 318 315 311 311 306 307 300
126 126 145 154 153 135 154 158 142 126 111 94 41 22 9 351 7 12 348 9 348 337 332 320 317 303 298 298 298 297 297 289
103 144 141 159 153 171 172 168 158 159 138 96 40 0 348 276 236 181 257 35 13 9 0 339 325 316 300 290 294 294 283 261
148 153 162 165 161 168 194 137 173 176 179 195 203 177 250 262 305 263 81 47 41 59 58 46 17 322 271 224 201 253 250 280
163 166 172 178 176 176 183 175 200 160 204 189 217 250 255 308 315 304 121 162 145 158 143 148 205 248 254 338 165 208 319 324
149 150 168 170 200 197 186 175 189 195 184 181 218 264 244 275 218 235 277 205 270 162 264 243 215 336 349 327 329 332 331 308
163 146 169 157 181 201 168 193 155 212 188 201 101 265 237 231 207 304 329 328 316 356 343 343 337 347 317 313 323 316 313 300
153 150 156 167 164 163 182 139 150 157 175 118 142 59 334 302 334 303 4 340 349 341 348 336 342 341 327 322 325 323 315 304
138 143 129 150 151 137 106 113 118 114 129 99 68 46 71 35 8 356 1 5 3 353 342 332 348 330 323 328 317 322 308 301
134 125 130 136 118 115 123 126 107 115 103 91 84 57 49 22 60 1 27 15 5 348 336 331 325 316 305 312 306 301 294 301
142 141 141 140 137 126 116 120 109 95 92 90 84 70 47 36 21 18 27 21 1 347 344 339 333 329 320 326 315 301 308 304
161 157 148 148 136 133 125 111 110 113 98 86 80 73 53 47 37 9 20 29 346 356 360 341 336 346 341 330 309 305 333 323
173 165 168 159 148 142 132 128 118 109 95 76 55 50 40 46 32 14 48 22 4 20 21 359 354 357 356 339 306 337 341 52
169 185 174 168 161 166 166 168 145 118 95 85 75 54 58 63 54 37 61 51 52 40 35 19 347 28 20 355 302 167 112 126
176 179 183 179 180 185 164 126 95 112 95 84 85 63 55 63 60 64 56 67 36 61 33 32 21 1 43 22 4 277 319 162
177 183 182 179 174 180 144 141 131 131 136 130 124 100 69 67 63 68 56 68 75 37 48 32 26 20 42 61 36 1 321 12
164 162 160 160 161 159 180 160 171 156 139 90 111 88 92 78 75 66 75 62 65 53 47 45 35 43 12 42 73 65 49 20